Weather in Bohuslav

Ukraine / Kyiv Region     49°32′52″N   30°52′26″E
temp.,
°C
wind,
m/s
gust,
m/s
humid.,
%
clouds,
%
prec.,
mm/h
press.,
hPa
HPBL,
m
13 june, sun
sun1300:00+15wsw3489100 0.0 101057
03:00+14sw47937 0.0 1009117
06:00+14ssw389326 0.0 1008164
09:00+18ssw5981100 0.3 1007415
12:00+19w688149 2.9 1007971
15:00+18nw6774100 3.9 1008927
18:00+16nw688195 0.1 1009911
21:00+13wnw4986100 0.1 1010313
14 june, mon
mon1400:00+13wnw3889100 0.2 1011262
03:00+12nw3794100 0.4 1011210
06:00+11nnw3697100 0.5 1011210
09:00+12nnw4898100 1.8 1012364
12:00+17ne5782100 0.3 1013741
15:00+18ne468770 1.3 1013353
18:00+20nne46828 2.6 1013821
21:00+16nne399563 4.6 1014159
15 june, tue
tue1500:00+15nne399726 2.5 1014185
03:00+14n499850 5.3 1015207
06:00+13n389959 0.1 1015213
09:00+17nne569286 0.1 1016424
12:00+21n557752 0.0 1015915
15:00+22n677498 0.4 10141230
18:00+21n47804 1.6 1013927
21:00+17n33884 2.3 101337
16 june, wed
wed1600:00+15nnw412941 0.0 1014247
03:00+14nnw4129418 0.0 1014258
06:00+13nnw411945 0.0 1014253
09:00+18n69815 0.0 1014501
12:00+21n79665 0.0 10141343
15:00+23nne79620 0.0 10141850
18:00+23nne697265 0.0 10141268
21:00+18n5128980 0.3 1015342
17 june, thu
thu1700:00+16n512961 0.1 1016314
03:00+15n512960 0.1 1016300
06:00+14n512951 0.0 1017313
09:00+19nne711805 0.0 1017581
12:00+22nne8117270 0.0 10171189
15:00+22nne8127847 1.2 10181325
18:00+18ne61393100 1.9 1019759
21:00+17ne6138915 1.9 1019554